Station Historical Data
Daily Summary for May 12, 2017 Units:  English    Metric   Both
« Previous Day
Next Day »
Daily Weekly Monthly Yearly Custom
  High: Low: Average:
Temperature: 65.4 °F 45.5 °F 56.3 °F
Dew Point: 46.4 °F 39.7 °F 43.1 °F
Humidity: 83% 45% 63%
Wind Speed: 6.0mph 0.0mph 2mph
Wind Gust: 13.0mph - -
Wind- - SE
Pressure: 30.01 in 29.90 in -
Precipitation: 0.00 in    
Historical Graphs
 
 
Tabular Data for May 12, 2017
Time Temperature Dew Point Pressure Wind Wind Speed Wind Gust Humidity Rainfall Rate (Hourly)
00:04 51.1 °F 40.1 °F 30.01 in ENE 3.0 mph 7.0 mph 66% 0.00 in
00:09 51.0 °F 40.4 °F 30.01 in ENE 3.0 mph 7.0 mph 67% 0.00 in
00:14 51.0 °F 40.4 °F 30.01 in ENE 3.0 mph 7.0 mph 67% 0.00 in
00:19 50.9 °F 40.3 °F 30.01 in ENE 2.0 mph 5.0 mph 67% 0.00 in
00:24 50.8 °F 40.6 °F 30.01 in East 1.0 mph 9.0 mph 68% 0.00 in
00:29 50.7 °F 40.5 °F 30.00 in ENE 5.0 mph 5.0 mph 68% 0.00 in
00:34 50.7 °F 40.5 °F 30.00 in ENE 2.0 mph 6.0 mph 68% 0.00 in
00:39 50.6 °F 40.4 °F 30.00 in ENE 3.0 mph 7.0 mph 68% 0.00 in
00:44 50.6 °F 40.8 °F 30.00 in ENE 1.0 mph 6.0 mph 69% 0.00 in
00:49 50.5 °F 40.7 °F 30.00 in ENE 2.0 mph 5.0 mph 69% 0.00 in
00:54 50.4 °F 41.0 °F 30.00 in ENE 2.0 mph 4.0 mph 70% 0.00 in
00:59 50.4 °F 41.0 °F 30.00 in ENE 2.0 mph 7.0 mph 70% 0.00 in
01:04 50.3 °F 40.9 °F 30.00 in East 2.0 mph 7.0 mph 70% 0.00 in
01:09 50.3 °F 40.9 °F 30.00 in ENE 2.0 mph 6.0 mph 70% 0.00 in
01:14 50.3 °F 41.3 °F 30.00 in ENE 3.0 mph 6.0 mph 71% 0.00 in
01:19 50.2 °F 41.2 °F 30.00 in ENE 3.0 mph 6.0 mph 71% 0.00 in
01:24 50.2 °F 41.2 °F 29.99 in NE 3.0 mph 6.0 mph 71% 0.00 in
01:29 50.1 °F 41.4 °F 29.99 in ENE 2.0 mph 7.0 mph 72% 0.00 in
01:34 50.1 °F 41.4 °F 29.99 in NE 2.0 mph 7.0 mph 72% 0.00 in
01:39 50.0 °F 41.3 °F 29.99 in ENE 2.0 mph 5.0 mph 72% 0.00 in
01:44 50.0 °F 41.3 °F 29.99 in ENE 1.0 mph 3.0 mph 72% 0.00 in
01:49 49.9 °F 41.6 °F 29.98 in NE 3.0 mph 6.0 mph 73% 0.00 in
01:54 49.9 °F 41.6 °F 29.98 in ENE 3.0 mph 4.0 mph 73% 0.00 in
01:59 49.8 °F 41.5 °F 29.98 in East 3.0 mph 5.0 mph 73% 0.00 in
02:04 49.6 °F 41.3 °F 29.98 in East 2.0 mph 5.0 mph 73% 0.00 in
02:09 49.6 °F 41.3 °F 29.98 in East 2.0 mph 6.0 mph 73% 0.00 in
02:14 49.5 °F 41.2 °F 29.98 in East 2.0 mph 6.0 mph 73% 0.00 in
02:19 49.3 °F 41.0 °F 29.98 in East 2.0 mph 6.0 mph 73% 0.00 in
02:24 49.2 °F 41.3 °F 29.98 in East 3.0 mph 5.0 mph 74% 0.00 in
02:29 48.9 °F 41.0 °F 29.98 in East 2.0 mph 5.0 mph 74% 0.00 in
02:34 48.9 °F 41.0 °F 29.98 in East 2.0 mph 5.0 mph 74% 0.00 in
02:39 48.7 °F 40.8 °F 29.97 in ENE 2.0 mph 5.0 mph 74% 0.00 in
02:44 48.5 °F 40.9 °F 29.98 in ENE 2.0 mph 5.0 mph 75% 0.00 in
02:49 48.3 °F 40.7 °F 29.98 in East 1.0 mph 5.0 mph 75% 0.00 in
02:54 48.1 °F 40.5 °F 29.98 in East 2.0 mph 3.0 mph 75% 0.00 in
02:59 48.0 °F 40.8 °F 29.98 in Calm   4.0 mph 76% 0.00 in
03:04 47.8 °F 40.6 °F 29.98 in ENE 1.0 mph 4.0 mph 76% 0.00 in
03:09 47.8 °F 40.6 °F 29.99 in ENE 1.0 mph 3.0 mph 76% 0.00 in
03:14 47.6 °F 40.4 °F 29.99 in Calm     76% 0.00 in
03:19 47.5 °F 40.3 °F 29.99 in Calm     76% 0.00 in
03:24 47.4 °F 40.2 °F 29.99 in Calm   2.0 mph 76% 0.00 in
03:29 47.0 °F 40.2 °F 29.99 in Calm     77% 0.00 in
03:34 46.3 °F 39.8 °F 29.99 in Calm   2.0 mph 78% 0.00 in
03:39 45.9 °F 39.8 °F 29.99 in Calm   2.0 mph 79% 0.00 in
03:44 45.5 °F 39.7 °F 29.99 in Calm   2.0 mph 80% 0.00 in
03:49 45.6 °F 39.8 °F 29.99 in Calm     80% 0.00 in
03:54 45.8 °F 40.0 °F 29.98 in Calm     80% 0.00 in
03:59 45.9 °F 40.1 °F 29.99 in Calm     80% 0.00 in
04:04 45.9 °F 40.1 °F 29.99 in Calm     80% 0.00 in
04:09 45.7 °F 39.9 °F 29.98 in Calm     80% 0.00 in
04:14 45.6 °F 40.1 °F 29.98 in Calm     81% 0.00 in
04:19 45.8 °F 40.3 °F 29.98 in Calm     81% 0.00 in
04:24 46.0 °F 40.5 °F 29.98 in Calm     81% 0.00 in
04:29 45.8 °F 40.3 °F 29.98 in Calm     81% 0.00 in
04:34 45.7 °F 40.2 °F 29.98 in Calm     81% 0.00 in
04:39 45.7 °F 40.5 °F 29.97 in Calm     82% 0.00 in
04:44 45.6 °F 40.4 °F 29.98 in Calm     82% 0.00 in
04:49 45.6 °F 40.7 °F 29.98 in Calm   2.0 mph 83% 0.00 in
04:54 45.8 °F 40.9 °F 29.98 in Calm   3.0 mph 83% 0.00 in
04:59 45.8 °F 40.9 °F 29.98 in ENE 2.0 mph 4.0 mph 83% 0.00 in
05:04 45.9 °F 41.0 °F 29.99 in ENE 1.0 mph 4.0 mph 83% 0.00 in
05:09 46.0 °F 40.8 °F 29.98 in ENE 3.0 mph 4.0 mph 82% 0.00 in
05:14 46.2 °F 41.0 °F 29.98 in ENE 4.0 mph 4.0 mph 82% 0.00 in
05:19 46.4 °F 41.2 °F 29.98 in ENE 3.0 mph 7.0 mph 82% 0.00 in
05:24 46.4 °F 40.9 °F 29.99 in NE 2.0 mph 5.0 mph 81% 0.00 in
05:29 46.4 °F 40.9 °F 29.99 in NE 1.0 mph 3.0 mph 81% 0.00 in
05:34 46.5 °F 41.0 °F 29.99 in NE 2.0 mph 5.0 mph 81% 0.00 in
05:39 46.6 °F 41.1 °F 29.99 in NE 2.0 mph 5.0 mph 81% 0.00 in
05:44 46.7 °F 41.2 °F 29.98 in NE 2.0 mph 4.0 mph 81% 0.00 in
05:49 46.6 °F 41.1 °F 29.98 in Calm   3.0 mph 81% 0.00 in
05:54 46.7 °F 41.2 °F 29.98 in NE 2.0 mph 2.0 mph 81% 0.00 in
05:59 46.7 °F 40.9 °F 29.98 in Calm   3.0 mph 80% 0.00 in
06:04 46.7 °F 40.9 °F 29.98 in NE 1.0 mph 3.0 mph 80% 0.00 in
06:09 46.6 °F 40.8 °F 29.98 in Calm   2.0 mph 80% 0.00 in
06:14 46.6 °F 40.8 °F 29.99 in Calm     80% 0.00 in
06:19 46.6 °F 40.8 °F 29.99 in Calm     80% 0.00 in
06:24 46.7 °F 40.9 °F 29.99 in Calm     80% 0.00 in
06:29 46.9 °F 41.1 °F 29.99 in NE 2.0 mph 2.0 mph 80% 0.00 in
06:34 47.0 °F 41.1 °F 29.99 in Calm   2.0 mph 80% 0.00 in
06:39 47.2 °F 41.3 °F 29.99 in NE 1.0 mph 3.0 mph 80% 0.00 in
06:44 47.5 °F 41.6 °F 29.99 in NE 1.0 mph 3.0 mph 80% 0.00 in
06:49 47.6 °F 41.7 °F 29.99 in NE 1.0 mph 3.0 mph 80% 0.00 in
06:54 47.7 °F 41.5 °F 29.99 in NE 3.0 mph 4.0 mph 79% 0.00 in
06:59 47.9 °F 41.7 °F 29.99 in NE 2.0 mph 4.0 mph 79% 0.00 in
07:04 48.0 °F 41.8 °F 29.99 in NE 2.0 mph 5.0 mph 79% 0.00 in
07:09 48.0 °F 41.8 °F 30.00 in NE 2.0 mph 4.0 mph 79% 0.00 in
07:14 48.3 °F 41.8 °F 30.00 in NE 1.0 mph 4.0 mph 78% 0.00 in
07:19 48.4 °F 41.9 °F 30.00 in Calm   3.0 mph 78% 0.00 in
07:24 48.7 °F 42.1 °F 30.00 in ENE 1.0 mph 3.0 mph 78% 0.00 in
07:29 48.9 °F 42.3 °F 30.00 in ENE 1.0 mph 3.0 mph 78% 0.00 in
07:34 49.0 °F 42.4 °F 30.00 in ENE 1.0 mph 4.0 mph 78% 0.00 in
07:39 49.3 °F 42.4 °F 30.00 in ENE 2.0 mph 4.0 mph 77% 0.00 in
07:44 49.7 °F 42.8 °F 29.99 in ENE 2.0 mph 5.0 mph 77% 0.00 in
07:49 49.9 °F 42.6 °F 29.99 in NE 2.0 mph 6.0 mph 76% 0.00 in
07:54 50.0 °F 43.1 °F 29.99 in NE 1.0 mph 4.0 mph 77% 0.00 in
07:59 50.1 °F 42.8 °F 29.99 in ENE 3.0 mph 5.0 mph 76% 0.00 in
08:04 50.4 °F 43.1 °F 29.99 in NE 2.0 mph 5.0 mph 76% 0.00 in
08:09 50.7 °F 43.1 °F 29.99 in NE 3.0 mph 6.0 mph 75% 0.00 in
08:14 51.1 °F 43.4 °F 29.99 in NE 3.0 mph 6.0 mph 75% 0.00 in
08:19 51.6 °F 43.2 °F 29.99 in ENE 2.0 mph 5.0 mph 73% 0.00 in
08:24 51.9 °F 43.5 °F 29.99 in NE 2.0 mph 5.0 mph 73% 0.00 in
08:29 52.6 °F 44.2 °F 29.99 in NE 4.0 mph 6.0 mph 73% 0.00 in
08:34 53.4 °F 44.2 °F 29.99 in NE 2.0 mph 4.0 mph 71% 0.00 in
08:39 53.9 °F 44.0 °F 29.99 in ENE 2.0 mph 5.0 mph 69% 0.00 in
08:44 54.4 °F 44.1 °F 30.00 in Calm   3.0 mph 68% 0.00 in
08:49 54.9 °F 45.3 °F 30.00 in ENE 1.0 mph 5.0 mph 70% 0.00 in
08:54 55.2 °F 44.8 °F 30.00 in ENE 2.0 mph 5.0 mph 68% 0.00 in
08:59 55.6 °F 44.8 °F 29.99 in Calm   5.0 mph 67% 0.00 in
09:04 56.0 °F 44.8 °F 30.00 in ESE 1.0 mph 5.0 mph 66% 0.00 in
09:09 56.8 °F 45.2 °F 30.00 in ESE 1.0 mph 5.0 mph 65% 0.00 in
09:14 57.2 °F 45.1 °F 30.00 in SSE 1.0 mph 2.0 mph 64% 0.00 in
09:19 57.7 °F 45.6 °F 29.99 in ESE 1.0 mph 5.0 mph 64% 0.00 in
09:24 58.4 °F 45.8 °F 29.99 in East 2.0 mph 6.0 mph 63% 0.00 in
09:29 59.2 °F 45.8 °F 29.99 in East 2.0 mph 6.0 mph 61% 0.00 in
09:34 59.5 °F 46.0 °F 29.98 in ENE 2.0 mph 4.0 mph 61% 0.00 in
09:39 59.8 °F 45.0 °F 29.98 in Calm   5.0 mph 58% 0.00 in
09:44 60.3 °F 45.5 °F 29.98 in East 1.0 mph 5.0 mph 58% 0.00 in
09:49 61.0 °F 46.1 °F 29.98 in SE 1.0 mph 6.0 mph 58% 0.00 in
09:54 61.1 °F 44.3 °F 29.98 in SSE 3.0 mph 7.0 mph 54% 0.00 in
09:59 61.2 °F 45.4 °F 29.98 in SE 2.0 mph 5.0 mph 56% 0.00 in
10:04 61.1 °F 45.3 °F 29.98 in SE 2.0 mph 6.0 mph 56% 0.00 in
10:09 61.1 °F 45.3 °F 29.98 in ESE 2.0 mph 6.0 mph 56% 0.00 in
10:14 61.2 °F 44.9 °F 29.98 in SE 2.0 mph 7.0 mph 55% 0.00 in
10:19 61.4 °F 45.1 °F 29.98 in SSE 3.0 mph 7.0 mph 55% 0.00 in
10:24 61.6 °F 45.3 °F 29.97 in South 1.0 mph 7.0 mph 55% 0.00 in
10:29 62.0 °F 44.7 °F 29.97 in South 1.0 mph 3.0 mph 53% 0.00 in
10:34 62.3 °F 45.9 °F 29.97 in South 2.0 mph 6.0 mph 55% 0.00 in
10:39 62.6 °F 46.2 °F 29.97 in South 2.0 mph 6.0 mph 55% 0.00 in
10:44 62.9 °F 46.0 °F 29.97 in NNE 1.0 mph 3.0 mph 54% 0.00 in
10:49 63.4 °F 44.9 °F 29.97 in ESE 3.0 mph 4.0 mph 51% 0.00 in
10:54 63.6 °F 46.1 °F 29.97 in Calm   8.0 mph 53% 0.00 in
10:59 63.7 °F 44.7 °F 29.97 in SSE 4.0 mph 7.0 mph 50% 0.00 in
11:04 63.6 °F 45.6 °F 29.97 in SSE 3.0 mph 7.0 mph 52% 0.00 in
11:09 63.6 °F 44.6 °F 29.97 in SSE 2.0 mph 5.0 mph 50% 0.00 in
11:14 63.5 °F 44.5 °F 29.96 in ENE 1.0 mph 7.0 mph 50% 0.00 in
11:19 63.4 °F 44.9 °F 29.96 in East 2.0 mph 7.0 mph 51% 0.00 in
11:24 63.8 °F 46.3 °F 29.96 in East 5.0 mph 5.0 mph 53% 0.00 in
11:29 63.9 °F 45.9 °F 29.96 in ENE 2.0 mph 5.0 mph 52% 0.00 in
11:34 63.9 °F 46.4 °F 29.95 in North 3.0 mph 5.0 mph 53% 0.00 in
11:39 64.0 °F 45.5 °F 29.95 in North 2.0 mph 7.0 mph 51% 0.00 in
11:44 64.3 °F 44.7 °F 29.95 in North 2.0 mph 7.0 mph 49% 0.00 in
11:49 64.5 °F 44.4 °F 29.95 in ENE 1.0 mph 6.0 mph 48% 0.00 in
11:54 64.3 °F 45.3 °F 29.94 in NE 3.0 mph 6.0 mph 50% 0.00 in
11:59 64.1 °F 45.6 °F 29.94 in Calm   6.0 mph 51% 0.00 in
12:04 64.1 °F 45.1 °F 29.94 in ENE 3.0 mph 7.0 mph 50% 0.00 in
12:09 63.9 °F 44.4 °F 29.94 in ENE 4.0 mph 5.0 mph 49% 0.00 in
12:14 63.8 °F 44.8 °F 29.94 in ENE 2.0 mph 6.0 mph 50% 0.00 in
12:19 63.8 °F 44.8 °F 29.94 in SSE 1.0 mph 6.0 mph 50% 0.00 in
12:24 64.1 °F 44.0 °F 29.94 in SW 1.0 mph 7.0 mph 48% 0.00 in
12:29 64.5 °F 46.0 °F 29.94 in SE 3.0 mph 9.0 mph 51% 0.00 in
12:34 64.6 °F 44.5 °F 29.93 in ENE 2.0 mph 9.0 mph 48% 0.00 in
12:39 64.8 °F 44.1 °F 29.93 in East 3.0 mph 13.0 mph 47% 0.00 in
12:44 64.7 °F 44.5 °F 29.93 in East 4.0 mph 13.0 mph 48% 0.00 in
12:49 64.6 °F 44.5 °F 29.93 in East 3.0 mph 9.0 mph 48% 0.00 in
12:54 64.8 °F 44.6 °F 29.93 in ESE 2.0 mph 7.0 mph 48% 0.00 in
12:59 65.0 °F 44.3 °F 29.93 in ESE 3.0 mph 9.0 mph 47% 0.00 in
13:04 64.3 °F 44.2 °F 29.93 in South 2.0 mph 6.0 mph 48% 0.00 in
13:09 64.2 °F 44.1 °F 29.93 in SSW 3.0 mph 7.0 mph 48% 0.00 in
13:14 63.9 °F 42.7 °F 29.93 in SSW 3.0 mph 7.0 mph 46% 0.00 in
13:19 64.1 °F 43.4 °F 29.93 in SSE 1.0 mph 6.0 mph 47% 0.00 in
13:24 64.1 °F 43.4 °F 29.93 in South 5.0 mph 8.0 mph 47% 0.00 in
13:29 63.8 °F 43.7 °F 29.93 in SSE 4.0 mph 8.0 mph 48% 0.00 in
13:34 63.5 °F 43.4 °F 29.93 in SSE 3.0 mph 6.0 mph 48% 0.00 in
13:39 63.5 °F 44.5 °F 29.93 in South 2.0 mph 4.0 mph 50% 0.00 in
13:44 63.9 °F 43.8 °F 29.93 in South 2.0 mph 6.0 mph 48% 0.00 in
13:49 63.9 °F 43.8 °F 29.92 in South 4.0 mph 8.0 mph 48% 0.00 in
13:54 64.0 °F 44.4 °F 29.92 in SSE 2.0 mph 6.0 mph 49% 0.00 in
13:59 64.2 °F 44.1 °F 29.92 in South 3.0 mph 7.0 mph 48% 0.00 in
14:04 64.4 °F 44.8 °F 29.92 in South 4.0 mph 7.0 mph 49% 0.00 in
14:09 64.8 °F 44.6 °F 29.92 in SSE 3.0 mph 10.0 mph 48% 0.00 in
14:14 64.7 °F 44.0 °F 29.92 in South 4.0 mph 8.0 mph 47% 0.00 in
14:19 64.8 °F 44.1 °F 29.92 in South 4.0 mph 8.0 mph 47% 0.00 in
14:24 65.3 °F 43.4 °F 29.91 in South 2.0 mph 7.0 mph 45% 0.00 in
14:29 65.4 °F 44.6 °F 29.92 in South 4.0 mph 10.0 mph 47% 0.00 in
14:34 65.0 °F 43.7 °F 29.92 in South 4.0 mph 10.0 mph 46% 0.00 in
14:39 64.5 °F 43.8 °F 29.92 in South 3.0 mph 8.0 mph 47% 0.00 in
14:44 64.3 °F 43.1 °F 29.92 in SSW 3.0 mph 9.0 mph 46% 0.00 in
14:49 64.4 °F 43.7 °F 29.91 in SSE 4.0 mph 8.0 mph 47% 0.00 in
14:54 64.5 °F 43.3 °F 29.91 in SSE 6.0 mph 10.0 mph 46% 0.00 in
14:59 64.0 °F 43.4 °F 29.91 in SSE 6.0 mph 12.0 mph 47% 0.00 in
15:04 63.8 °F 43.2 °F 29.91 in SSE 5.0 mph 12.0 mph 47% 0.00 in
15:09 63.9 °F 42.7 °F 29.91 in SSE 6.0 mph 7.0 mph 46% 0.00 in
15:14 63.8 °F 43.2 °F 29.91 in SSE 1.0 mph 9.0 mph 47% 0.00 in
15:19 63.9 °F 43.8 °F 29.91 in SSE 4.0 mph 7.0 mph 48% 0.00 in
15:24 63.6 °F 43.0 °F 29.91 in SSW 1.0 mph 9.0 mph 47% 0.00 in
15:29 63.6 °F 43.0 °F 29.91 in South 4.0 mph 9.0 mph 47% 0.00 in
15:34 63.4 °F 43.4 °F 29.91 in South 4.0 mph 8.0 mph 48% 0.00 in
15:39 63.3 °F 43.3 °F 29.91 in SSW 4.0 mph 8.0 mph 48% 0.00 in
15:44 63.2 °F 43.2 °F 29.91 in SSE 1.0 mph 7.0 mph 48% 0.00 in
15:49 63.3 °F 42.7 °F 29.91 in SSW 2.0 mph 5.0 mph 47% 0.00 in
15:54 63.2 °F 43.2 °F 29.91 in South 1.0 mph 6.0 mph 48% 0.00 in
15:59 63.3 °F 42.7 °F 29.91 in SSW 2.0 mph 6.0 mph 47% 0.00 in
16:04 63.4 °F 43.9 °F 29.91 in SW 2.0 mph 7.0 mph 49% 0.00 in
16:09 63.5 °F 43.4 °F 29.91 in SW 3.0 mph 7.0 mph 48% 0.00 in
16:14 63.4 °F 43.4 °F 29.91 in SW 4.0 mph 8.0 mph 48% 0.00 in
16:19 63.2 °F 43.2 °F 29.91 in SSW 2.0 mph 6.0 mph 48% 0.00 in
16:24 63.2 °F 43.2 °F 29.91 in South 3.0 mph 4.0 mph 48% 0.00 in
16:29 63.2 °F 43.2 °F 29.90 in South 2.0 mph 7.0 mph 48% 0.00 in
16:34 63.2 °F 44.2 °F 29.90 in South 1.0 mph 6.0 mph 50% 0.00 in
16:39 63.0 °F 43.0 °F 29.90 in SSW 2.0 mph 5.0 mph 48% 0.00 in
16:44 62.9 °F 43.4 °F 29.90 in SW 2.0 mph 4.0 mph 49% 0.00 in
16:49 62.8 °F 42.8 °F 29.90 in South 1.0 mph 4.0 mph 48% 0.00 in
16:54 62.9 °F 42.9 °F 29.90 in South 2.0 mph 4.0 mph 48% 0.00 in
16:59 63.1 °F 42.5 °F 29.90 in SSE 2.0 mph 7.0 mph 47% 0.00 in
17:04 62.9 °F 41.8 °F 29.90 in SSE 3.0 mph 7.0 mph 46% 0.00 in
17:09 63.0 °F 43.5 °F 29.90 in South 2.0 mph 5.0 mph 49% 0.00 in
17:14 62.9 °F 42.9 °F 29.90 in South 2.0 mph 5.0 mph 48% 0.00 in
17:19 62.9 °F 43.4 °F 29.90 in SSW 3.0 mph 6.0 mph 49% 0.00 in
17:24 62.6 °F 42.6 °F 29.90 in SW 3.0 mph 6.0 mph 48% 0.00 in
17:29 62.3 °F 42.9 °F 29.90 in SSW 3.0 mph 8.0 mph 49% 0.00 in
17:34 62.2 °F 42.8 °F 29.91 in South 4.0 mph 7.0 mph 49% 0.00 in
17:39 61.9 °F 43.6 °F 29.91 in SW 2.0 mph 8.0 mph 51% 0.00 in
17:44 61.7 °F 42.9 °F 29.91 in West 4.0 mph 8.0 mph 50% 0.00 in
17:49 61.4 °F 43.1 °F 29.91 in WNW 3.0 mph 6.0 mph 51% 0.00 in
17:54 61.3 °F 43.0 °F 29.91 in WSW 3.0 mph 7.0 mph 51% 0.00 in
17:59 61.3 °F 43.5 °F 29.91 in SW 3.0 mph 7.0 mph 52% 0.00 in
18:04 61.3 °F 43.5 °F 29.91 in WSW 3.0 mph 6.0 mph 52% 0.00 in
18:09 61.2 °F 43.9 °F 29.91 in SSW 6.0 mph 7.0 mph 53% 0.00 in
18:14 61.1 °F 43.8 °F 29.91 in West 5.0 mph 8.0 mph 53% 0.00 in
18:19 61.0 °F 44.2 °F 29.91 in SW 3.0 mph 5.0 mph 54% 0.00 in
18:24 61.1 °F 43.3 °F 29.91 in WSW 3.0 mph 6.0 mph 52% 0.00 in
18:29 61.0 °F 43.2 °F 29.91 in WSW 3.0 mph 6.0 mph 52% 0.00 in
18:34 60.9 °F 43.1 °F 29.91 in WSW 4.0 mph 7.0 mph 52% 0.00 in
18:39 60.8 °F 43.1 °F 29.91 in WSW 3.0 mph 7.0 mph 52% 0.00 in
18:44 60.8 °F 43.6 °F 29.91 in SW 2.0 mph 6.0 mph 53% 0.00 in
18:49 60.7 °F 43.9 °F 29.90 in WSW 2.0 mph 6.0 mph 54% 0.00 in
18:54 60.6 °F 43.4 °F 29.90 in SW 2.0 mph 4.0 mph 53% 0.00 in
18:59 60.6 °F 42.9 °F 29.90 in SW 2.0 mph 5.0 mph 52% 0.00 in
19:04 60.7 °F 43.9 °F 29.90 in West 5.0 mph 6.0 mph 54% 0.00 in
19:09 60.5 °F 43.8 °F 29.90 in SW 4.0 mph 5.0 mph 54% 0.00 in
19:14 60.3 °F 44.1 °F 29.91 in SSW 2.0 mph 7.0 mph 55% 0.00 in
19:19 60.1 °F 43.9 °F 29.90 in SSW 3.0 mph 7.0 mph 55% 0.00 in
19:24 60.0 °F 43.8 °F 29.90 in South 2.0 mph 6.0 mph 55% 0.00 in
19:29 60.0 °F 43.8 °F 29.91 in South 1.0 mph 4.0 mph 55% 0.00 in
19:34 60.0 °F 43.3 °F 29.91 in SSW 1.0 mph 4.0 mph 54% 0.00 in
19:39 59.8 °F 43.1 °F 29.91 in SSW 2.0 mph 4.0 mph 54% 0.00 in
19:44 59.7 °F 43.0 °F 29.91 in South 2.0 mph 4.0 mph 54% 0.00 in
19:49 59.7 °F 43.0 °F 29.91 in South 2.0 mph 6.0 mph 54% 0.00 in
19:54 59.5 °F 42.8 °F 29.91 in SSW 3.0 mph 4.0 mph 54% 0.00 in
19:59 59.4 °F 42.7 °F 29.91 in SSW 2.0 mph 6.0 mph 54% 0.00 in
20:04 59.3 °F 42.6 °F 29.91 in WSW 3.0 mph 4.0 mph 54% 0.00 in
20:09 59.1 °F 42.5 °F 29.91 in SW 6.0 mph 6.0 mph 54% 0.00 in
20:14 59.0 °F 42.8 °F 29.90 in Calm   6.0 mph 55% 0.00 in
20:19 58.8 °F 42.7 °F 29.91 in SW 2.0 mph 6.0 mph 55% 0.00 in
20:24 58.7 °F 42.6 °F 29.90 in SW 2.0 mph 6.0 mph 55% 0.00 in
20:29 58.6 °F 42.5 °F 29.91 in SW 2.0 mph 6.0 mph 55% 0.00 in
20:34 58.3 °F 42.2 °F 29.90 in WSW 1.0 mph 4.0 mph 55% 0.00 in
20:39 58.2 °F 42.6 °F 29.91 in SSW 1.0 mph 5.0 mph 56% 0.00 in
20:44 58.1 °F 43.8 °F 29.91 in SW 3.0 mph 6.0 mph 59% 0.00 in
20:49 58.1 °F 44.7 °F 29.91 in SSW 2.0 mph 6.0 mph 61% 0.00 in
20:54 58.0 °F 45.5 °F 29.90 in Calm   2.0 mph 63% 0.00 in
20:59 57.8 °F 45.7 °F 29.90 in Calm     64% 0.00 in
21:04 57.7 °F 46.0 °F 29.90 in SW 1.0 mph 2.0 mph 65% 0.00 in
21:09 57.6 °F 46.3 °F 29.91 in West 2.0 mph 6.0 mph 66% 0.00 in
21:14 57.3 °F 45.6 °F 29.91 in WSW 3.0 mph 4.0 mph 65% 0.00 in
21:19 57.0 °F 45.7 °F 29.91 in West 2.0 mph 4.0 mph 66% 0.00 in
21:24 56.8 °F 45.6 °F 29.91 in West 1.0 mph 4.0 mph 66% 0.00 in
21:29 56.7 °F 45.5 °F 29.91 in West 1.0 mph 3.0 mph 66% 0.00 in
21:34 56.6 °F 45.8 °F 29.91 in West 1.0 mph 4.0 mph 67% 0.00 in
21:39 56.4 °F 45.6 °F 29.91 in WNW 3.0 mph 6.0 mph 67% 0.00 in
21:44 56.3 °F 45.9 °F 29.91 in WNW 3.0 mph 4.0 mph 68% 0.00 in
21:49 56.2 °F 45.8 °F 29.91 in WNW 2.0 mph 4.0 mph 68% 0.00 in
21:54 56.0 °F 46.0 °F 29.91 in WNW 1.0 mph 4.0 mph 69% 0.00 in
21:59 56.0 °F 46.0 °F 29.91 in WNW 1.0 mph 4.0 mph 69% 0.00 in
22:04 55.9 °F 46.3 °F 29.91 in Calm     70% 0.00 in
22:09 55.8 °F 46.2 °F 29.91 in Calm     70% 0.00 in
22:14 55.7 °F 46.1 °F 29.91 in Calm     70% 0.00 in
22:19 55.7 °F 46.4 °F 29.91 in Calm     71% 0.00 in
22:24 55.6 °F 46.3 °F 29.91 in Calm   2.0 mph 71% 0.00 in
22:29 55.6 °F 46.3 °F 29.91 in WNW 2.0 mph 3.0 mph 71% 0.00 in
22:34 55.5 °F 45.9 °F 29.91 in Calm   2.0 mph 70% 0.00 in
22:39 55.5 °F 45.5 °F 29.91 in Calm   1.0 mph 69% 0.00 in
22:44 55.4 °F 44.6 °F 29.91 in SW 3.0 mph 5.0 mph 67% 0.00 in
22:49 55.5 °F 44.3 °F 29.91 in SW 2.0 mph 5.0 mph 66% 0.00 in
22:54 55.5 °F 44.3 °F 29.91 in SW 2.0 mph 4.0 mph 66% 0.00 in
22:59 55.6 °F 44.4 °F 29.91 in SW 2.0 mph 5.0 mph 66% 0.00 in
23:04 55.6 °F 44.4 °F 29.91 in SW 2.0 mph 6.0 mph 66% 0.00 in
23:09 55.6 °F 44.4 °F 29.91 in SW 1.0 mph 6.0 mph 66% 0.00 in
23:14 55.6 °F 44.8 °F 29.91 in Calm   2.0 mph 67% 0.00 in
23:19 55.5 °F 44.7 °F 29.91 in Calm   3.0 mph 67% 0.00 in
23:24 55.4 °F 44.2 °F 29.90 in SSW 3.0 mph 3.0 mph 66% 0.00 in
23:29 55.3 °F 44.1 °F 29.90 in SSW 2.0 mph 3.0 mph 66% 0.00 in
23:34 55.3 °F 43.7 °F 29.90 in Calm   4.0 mph 65% 0.00 in
23:39 55.3 °F 44.1 °F 29.90 in SW 1.0 mph 4.0 mph 66% 0.00 in
23:44 55.2 °F 44.0 °F 29.90 in SSW 1.0 mph 4.0 mph 66% 0.00 in
23:49 55.1 °F 43.9 °F 29.90 in SSW 2.0 mph 4.0 mph 66% 0.00 in
23:54 55.1 °F 43.9 °F 29.90 in SSW 2.0 mph 4.0 mph 66% 0.00 in
23:59 55.0 °F 43.8 °F 29.90 in South 1.0 mph 4.0 mph 66% 0.00 in
Buffalo, New York, USA
Compliments of Weather Underground - 2.5 mb